Погода в Семипалатинске

Погода в Семипалатинске : погода сейчас, прогноз погоды и архив. Всё, что Вы хотите узнать о погоде в Семипалатинске!

Хотите узнать прогноз погоды в Семипалатинске? Тогда Вам сюда: Погода в Семипалатинске

Поиск расширенной информации на нашем сайте:

Полезная информация:

Другие новости

Новости СМИ2

Главная страница сайта

Новости сайта

03.07.2017

Напоминаем, что на нашем специализированном сайте Метеоцентр.Азия вы можете получить высокодетализированные автоматические прогнозы погоды по пунктам России, СНГ и мира в авиационном формате (включающие направление и скорость ветра, видимость, явления погоды, количество и форму облачности, нижнюю и верхнюю границу облачности).

Рекомендуем:

Погода в Семипалатинске - сегодня

Время (UTC), дата Ветер
(°,м/с) 
Видим.   Явления Облачность Т
(°С)
Тd
(°С)
f(%) Тe
(°С)
Pmin
(гПа)
dP
(гПа)
Po
(мм)
O2
(г/м3)
Тmin Tmax R s Состояние
почвы
12 15.07.19 360 (С) 10 км    ясно 
+29.4 +9.4 29 +30  1004.2  -0.3  737  266           
15 15.07.19 350 (С) 10 км    ясно 
+25.9 +10.7 38 +28  1004.9  0.5  737  269    +30.8       
18 15.07.19 350 (С) н/о    ясно 
+22 +10.7 49 +24  1005.4  0.2  737  273    +30.8       
21 15.07.19 360 (С) н/о    ясно 
+18.1 +9.4 57 +21  1005.5  -0.2  737  277           
00 16.07.19 340 (С) 10 км    ясно 
+17.1 +10.2 64 +21  1006.1  0.5  738  278           
03 16.07.19 360 (С) 10 км    ясно 
+22.6 +10.8 47 +25  1006.2  0.5  738  273           
06 16.07.19 360 (С) 10 км    ясно 
+25.2 +8.3 34 +25  1005.7  -0.3  738  271  +17.1         
09 16.07.19 360 (С) 10 км    ясно 
+27.3 +5.1 24 +27  1005.1  -0.5  737  269           
12 16.07.19 330 (СЗ) 10 км    ясно 
+27.9 +8.5 30 +28  1004.5  -0.5  737  268           
15 16.07.19 340 (С) 10 км    ясно 
+24.1 +11.4 45 +28  1005.1  0.4  737  271    +29.2       
18 16.07.19 290 (З) н/о    ясно 
+14.5 +5.5 55 +16  1006.2  0.3  737  281    +29.2       
21 16.07.19 тихо ()   н/о    ясно 
+11.4 +5.1 65 +11  1006.4  -0.1  737  284           
00 17.07.19 тихо ()   10 км    ясно 
+12.1 +6.9 70 +12  1006.2  -0.1  737  283           
03 17.07.19 090 (В) 10 км    ясно 
+22.8 +12.1 51 +27  1006.6  1.2  738  272           
06 17.07.19 тихо ()   10 км    1/0 верхняя 
[Ci fib]
+30.8 +12.3 32 +36  1005.1  -0.9  738  265  +11.4         
09 17.07.19 270 (З) 10 км    8/3 1000 м средняя, верхняя 
[Cu med, cong|Ac trans|Ci fib]
+32.7 +11.1 27 +36  1003.7  -1.2  737  263           
12 17.07.19 270 (З) 10 км    4/3 1000 м средняя 
[Cu hum|Ac trans]
+33.3 +12.1 28 +38  1002.9  -0.7  736  262           
15 17.07.19 050 (СВ) 10 км  гроза без осадков  6/6 600 м кучево-дожд. 
[Cb cap]
+26.1 +14.1 48 +34  1002.9  -0.5  736  268    +34.1       
18 17.07.19 050 (СВ) н/о  {гроза, ливн. осадки}  1/1 1000 м 
[Sc]
+20 +14.4 70 +28  1003.5  0.1  736  273    +34.1       
21 17.07.19 320 (СЗ) н/о    3/0 средняя 
[Ac trans]
+22.4 +15.1 63 +32  1003.5  0.2  736  271           
00 18.07.19 320 (СЗ) 10 км    1/0 средняя 
[Ac trans]
+19.8 +14.7 72 +29  1004.6  0.9  737  274           
03 18.07.19 290 (З) 10 км    3/0 средняя, верхняя 
[Ac trans|Ci fib]
+23.2 +14.5 58 +31  1006.7  2.3  738  271      0.0     
06 18.07.19 360 (С) 10 км    8/0 средняя, верхняя 
[Ac trans|Ci fib]
+28.6 +13.2 39 +35  1006.3  738  267  +19.3    0.0     
09 18.07.19 350 (С) 10 км    8/8 1000 м 
[Cu med, cong]
+29.6 +9.9 29 +31  1006.1  -0.2  738  267           
12 18.07.19 050 (СВ) 10 км    6/6 1000 м 
[Cu med, cong]
+29.3 +13.3 37 +36  1006.3  0.2  738  266           
Время (UTC), дата Ветер
(°,м/с) 
Видим.   Явления Облачность Т
(°С)
Тd
(°С)
f(%) Тe
(°С)
Pmin
(гПа)
dP
(гПа)
Po
(мм)
O2
(г/м3)
Тmin Tmax R s Состояние
почвы

Для получения пояснительной информации подведите курсор к названию столбца.

ПОГОДА в Семипалатинске - архив

Всё, что Вы хотите узнать о погоде в Семипалатинске - удобно и подробно!

Выберите нужную дату (начиная с 1 января 2018* года) и нажмите кнопку "Найти".
Будут отображены архивные сводки погоды по пункту Семипалатинск, начиная с указанной даты.


Отображать данные в формате CSV (для использования в таблицах Excel)


Внимание! Наш архив погоды предназначен исключительно для личного некоммерческого использования в познавательных целях. Если Вам необходимы официальные справки о состоянии погоды (для производственных, юридических, коммерческих и т.п. целей), обращайтесь в органы Росгидромета.

*Примечание: данная дата относится к архиву по метеостанциям СССР (Россия, СНГ, Балтия).
Архив по метеостанциям Зарубежной Европы и Азии (кроме Китая) хранится 10 дней, по другим регионам земного шара (Китай, Африка, Америка, Австралия, Океания) - 1 день.

Семипалатинск - район местоположения метеостанции


Название, широта, долгота, высота метеостанции:
Семипалатинск 50.4°ш. 80.3°д. 196 м над ур. моря [Казахстан]

Дополнительная информация

В oтличие oт бoльшинства пoгoдных сайтoв мы публикуем пoдрoбную метеoинфoрмацию в детальнoм прoфессиoнальнoм фoрмате.

Характеристики температуры и влажнoсти вoздуха измеряются на высoте 2 м в тени вдали oт зданий и деревьев.
Скoрoсть ветра измеряется на высoте 10 м (на урoвне рoста челoвека скoрoсть ветра ниже в 1.5-2 раза). Если метеoстанция нахoдится в гoрoде или в лесу, тo скoрoсть ветра занижена на 2-4 м/с пo сравнению с oткрытым местoм. Скoрoсть ветра над акватoриями крупных рек и oзёр, а также на вершинах хoлмoв на 2-5 м/с выше, чем в oбычных услoвиях.
Атмoсфернoе давление в разных тoчках местнoсти мoжет значительнo oтличаться oт давления на метеoстанции, в зависимoсти oт услoвий рельефа (при пoдъёме на 10 м давление пoнижается примернo на 1 мм рт.ст.).